Flag for Belgium Weather past 2 weeks in Mons, Belgium

Now
50 °F

Light rain. Partly cloudy.


Feels Like: 46 °F
Forecast: 31 / 54 °F
Wind: 10 mph from North

Location: Chievres

Current Time: Apr 27, 2015 at 2:21:59 AM

Latest Report: Apr 27, 2015 at 1:25 AM


Visibility: 2 mi

Pressure: 29.68 "Hg

Humidity: 94%

Dew point: 48 °F

Location of MonsLocation

Historic Weather in Mons — Graph

°F

Mons temperature yesterday

Maximum temperature yesterday: 59 °F (at 2:25 PM)
Minimum temperature yesterday: 52 °F (at 5:25 AM)
Average temperature yesterday: 54 °F

Past Weeks' High & Low Weather Summary

 TemperatureHumidityPressure
High77 °F (Apr 15, 4:25 PM)100% (Apr 22, 7:25 AM)30.51 "Hg (Apr 22, 7:25 AM)
Low37 °F (Apr 12, 7:25 AM)31% (Apr 15, 3:25 PM)29.68 "Hg (Apr 26, 6:56 PM)
Average52 °F73%30.13 "Hg
* Reported Apr 12 12:25 AM — Apr 27 12:25 AM, Mons, Weather by CustomWeather, © 2015

Note: Actual official high and low records may vary slightly from our data, if they occured in-between our weather recording intervals... More about our weather records

Advertising

Mons weather history for previous 24 hours

 ConditionsComfort  
Time TempWeatherWind HumidityBarometerVisibility
12:25 AM
Mon, Apr 27
52 °FLight rain. Partly cloudy.9 mph94%29.68 "Hg1 mi
11:25 PM
Sun, Apr 26
52 °FLight rain. Partly cloudy.9 mph100%29.68 "Hg1 mi
10:25 PM54 °FLight rain. Passing clouds.6 mph94%29.68 "Hg1 mi
9:25 PM54 °FLight rain. Partly sunny.6 mph94%29.68 "Hg2 mi
8:25 PM54 °FLight rain. Partly sunny.6 mph94%29.68 "Hg4 mi
8:04 PM54 °FRain. Overcast.6 mph100%29.68 "Hg3 mi
7:25 PM54 °FLight rain. Broken clouds.6 mph100%29.68 "Hg4 mi
6:56 PM55 °FLight rain. Broken clouds.3 mph94%29.68 "HgN/A
5:25 PM54 °FLight rain. Partly sunny.6 mph94%29.71 "Hg6 mi
5:03 PM54 °FHeavy rain. Broken clouds.9 mph100%29.71 "Hg2 mi
4:25 PM57 °FLight rain. Broken clouds.5 mph88%29.71 "HgN/A
3:51 PM57 °FLight rain. Broken clouds.2 mph88%29.71 "HgN/A
3:25 PM59 °FLight rain. Broken clouds.2 mph77%29.71 "HgN/A
2:25 PM59 °FPartly sunny.2 mph72%29.71 "Hg3 mi
1:25 PM57 °FBroken clouds.2 mph77%29.74 "Hg4 mi
12:25 PM55 °FLight rain. Partly sunny.2 mph94%29.74 "HgN/A
12:03 PM55 °FHeavy rain. Broken clouds.2 mph88%29.77 "Hg1 mi
11:46 AM54 °FLight rain. Partly sunny.3 mph94%29.77 "Hg3 mi
11:25 AM54 °FLight rain. Broken clouds.5 mph94%29.74 "HgN/A
10:25 AM55 °FBroken clouds.5 mph88%29.74 "Hg4 mi
9:25 AM55 °FLight rain. Broken clouds.7 mph88%29.74 "Hg4 mi
8:49 AM55 °FPartly sunny.7 mph88%29.74 "Hg4 mi
8:25 AM54 °FBroken clouds.5 mph94%29.74 "Hg5 mi
7:54 AM54 °FBroken clouds.6 mph94%29.74 "Hg4 mi
7:25 AM54 °FPassing clouds.5 mph94%29.74 "Hg5 mi
6:47 AM52 °FPartly cloudy.6 mph100%29.74 "Hg6 mi
6:25 AM54 °FPassing clouds.7 mph94%29.74 "Hg4 mi
5:25 AM52 °FPartly cloudy.6 mph100%29.74 "Hg4 mi
4:25 AM54 °FPassing clouds.9 mph94%29.74 "Hg4 mi
3:25 AM54 °FPassing clouds.10 mph94%29.74 "Hg5 mi
2:25 AM54 °FPassing clouds.9 mph94%29.74 "Hg4 mi
Weather by CustomWeather, © 2015

See weather overviewHow to use our weather pages